This demonstration page uses our WeatherBlox Daily Observations layout. Learn more.

Left ArrowRight Arrow

40.92945, -100.16068

Hourly Observations for June 10, 2016

Temp ( °F °C ) Dew Point ( °F °C ) Humidity (%) Winds ( mph kmh ) Pressure ( in mb ) Visibility ( mi km ) Precip ( " mm )
12:15 am 00:15 Clear 77 24.8 62 16.6 60 60 S 13 20 29.71 1006 10 16 N/A
12:35 am 00:35 Clear 76 24.7 62 16.7 61 61 S 14 22 29.68 1005 10 16 N/A
12:55 am 00:55 Clear 76 24.5 63 17 63 63 S 13 20 29.71 1006 10 16 N/A
1:15 am 01:15 Clear 76 24.4 62 16.8 63 63 S 15 24 29.68 1005 10 16 N/A
1:35 am 01:35 Clear 75 24 62 16.9 65 65 S 13 20 29.71 1006 10 16 N/A
1:55 am 01:55 Clear 74 23.3 63 17 68 68 S 10 17 29.68 1005 10 16 N/A
2:15 am 02:15 Clear 73 23 63 17 69 69 S 12 19 29.68 1005 10 16 N/A
2:35 am 02:35 Clear 73 22.8 63 17 70 70 S 10 17 29.68 1005 10 16 N/A
2:55 am 02:55 Clear 73 22.5 63 17.1 72 72 S 10 17 29.68 1005 10 16 N/A
3:15 am 03:15 Clear 72 22.3 63 17 72 72 S 10 17 29.68 1005 10 16 N/A
3:35 am 03:35 Clear 72 22.2 63 17 73 73 S 10 17 29.71 1006 10 16 N/A
3:55 am 03:55 Clear 72 22.2 62 16.8 72 72 S 9 15 29.71 1006 10 16 N/A
4:15 am 04:15 Clear 73 22.5 62 16.6 69 69 S 12 19 29.71 1006 10 16 N/A
4:35 am 04:35 Clear 72 22.3 62 16.6 70 70 S 8 13 29.71 1006 10 16 N/A
4:55 am 04:55 Clear 71 21.7 62 16.5 72 72 SSE 6 9 29.71 1006 10 16 N/A
5:15 am 05:15 Clear 71 21.6 62 16.4 72 72 SSE 5 7 29.71 1006 10 16 N/A
5:35 am 05:35 Clear 71 21.5 61 16.3 72 72 SSE 5 7 29.71 1006 10 16 N/A
5:55 am 05:55 Clear 70 21.1 61 16.1 73 73 SSE 3 6 29.77 1008 10 16 N/A
6:15 am 06:15 Sunny 70 20.9 61 16.2 75 75 SSW 12 19 29.74 1007 10 16 N/A
6:35 am 06:35 Sunny 71 21.8 61 16.3 71 71 N N/A 29.77 1008 10 16 N/A
6:55 am 06:55 Sunny 70 21 62 16.5 76 76 SSE 9 15 29.77 1008 10 16 N/A
7:15 am 07:15 Sunny 70 21.3 62 16.6 75 75 SSE 5 7 29.77 1008 10 16 N/A
7:35 am 07:35 Sunny 71 21.9 62 16.8 73 73 SSE 8 13 29.74 1007 10 16 N/A
7:55 am 07:55 Sunny 73 22.5 63 17 71 71 S 8 13 29.74 1007 10 16 N/A
8:15 am 08:15 Sunny 74 23.3 63 17 68 68 S 9 15 29.77 1008 10 16 N/A
8:35 am 08:35 Sunny 75 24.1 63 17.1 65 65 S 8 13 29.77 1008 10 16 N/A
8:55 am 08:55 Sunny 76 24.6 62 16.9 62 62 SSW 9 15 29.77 1008 10 16 N/A
9:15 am 09:15 Sunny 77 25.2 63 17.3 62 62 S 9 15 29.77 1008 10 16 N/A
9:35 am 09:35 Sunny 79 25.9 63 17.3 59 59 SSW 8 13 29.74 1007 10 16 N/A
9:55 am 09:55 Sunny 79 26.2 63 17.3 58 58 SW 10 17 29.74 1007 10 16 N/A
10:15 am 10:15 Sunny 80 26.7 64 17.6 57 57 SW 9 15 29.77 1008 10 16 N/A
10:35 am 10:35 Sunny 81 27.2 64 17.9 57 57 SSW 8 13 29.74 1007 10 16 N/A
10:55 am 10:55 Sunny 82 27.7 64 18 56 56 S 8 13 29.74 1007 10 16 N/A
11:15 am 11:15 Sunny 83 28.5 65 18.1 53 53 SSW 9 15 29.74 1007 10 16 N/A
11:35 am 11:35 Sunny 84 28.9 64 18 52 52 S 8 13 29.74 1007 10 16 N/A
11:55 am 11:55 Sunny 86 30 65 18.1 49 49 SSW 9 15 29.74 1007 10 16 N/A
12:15 pm 12:15 Sunny 87 30.3 64 18 48 48 SSE 12 19 29.74 1007 10 16 N/A
12:35 pm 12:35 Sunny 87 30.7 63 17.4 45 45 SSE 12 19 29.74 1007 10 16 N/A
12:55 pm 12:55 Sunny 89 31.8 63 17.2 42 42 S 9 15 29.74 1007 7 11 N/A
1:15 pm 13:15 Sunny 90 32 62 16.9 40 40 SSE 13 20 29.74 1007 7 11 N/A
1:35 pm 13:35 Sunny 91 32.6 62 16.6 38 38 S 13 20 29.74 1007 10 16 N/A
1:55 pm 13:55 Sunny 91 33 62 16.4 37 37 S 16 26 29.74 1007 10 16 N/A
2:15 pm 14:15 Sunny 92 33.5 62 16.8 37 37 S 14 22 29.68 1005 10 16 N/A
2:35 pm 14:35 Sunny 92 33.6 62 16.7 36 36 S 13 20 29.68 1005 10 16 N/A
2:55 pm 14:55 Sunny 93 34.1 62 16.7 35 35 S 15 24 29.68 1005 10 16 N/A
3:15 pm 15:15 Sunny 94 34.5 62 16.7 35 35 S 16 26 29.68 1005 10 16 N/A
3:35 pm 15:35 Sunny 95 35 61 15.9 32 32 S 14 22 29.68 1005 10 16 N/A
3:55 pm 15:55 Sunny 95 35.1 60 15.7 31 31 S 15 24 29.68 1005 10 16 N/A
4:15 pm 16:15 Sunny 95 35.1 61 15.9 32 32 SSW 15 24 29.68 1005 10 16 N/A
4:35 pm 16:35 Sunny 96 35.3 60 15.6 31 31 SSW 14 22 29.68 1005 10 16 N/A
4:55 pm 16:55 Sunny 95 35.2 59 15.1 30 30 S 15 24 29.68 1005 10 16 N/A
5:15 pm 17:15 Sunny 96 35.3 58 14.6 29 29 SSW 14 22 29.68 1005 10 16 N/A
5:35 pm 17:35 Sunny 96 35.4 60 15.3 30 30 SSW 14 22 29.68 1005 10 16 N/A
5:55 pm 17:55 Sunny 95 35.1 59 15 30 30 S 15 24 29.68 1005 10 16 N/A
6:15 pm 18:15 Sunny 95 34.9 58 14.5 29 29 S 15 24 29.65 1004 10 16 N/A
6:35 pm 18:35 Sunny 94 34.4 58 14.3 30 30 S 15 24 29.65 1004 10 16 N/A
6:55 pm 18:55 Sunny 93 34 58 14.4 31 31 S 14 22 29.65 1004 10 16 N/A
7:15 pm 19:15 Sunny 92 33.5 58 14.6 32 32 S 13 20 29.65 1004 10 16 N/A
7:35 pm 19:35 Sunny 89 31.9 59 15 36 36 S 13 20 29.71 1006 10 16 N/A
7:55 pm 19:55 Sunny 88 31 60 15.5 39 39 S 10 17 29.71 1006 10 16 N/A
8:15 pm 20:15 Sunny 86 30 61 15.9 42 42 S 8 13 29.71 1006 10 16 N/A
8:35 pm 20:35 Sunny 85 29.2 61 15.9 45 45 SSE 7 11 29.77 1008 10 16 N/A
8:55 pm 20:55 Sunny 83 28.2 61 16 48 48 S 8 13 29.77 1008 10 16 N/A
9:15 pm 21:15 Clear 81 27.2 61 16 50 50 S 6 9 29.77 1008 10 16 N/A
9:35 pm 21:35 Clear 80 26.5 61 16.1 53 53 S 7 11 29.77 1008 10 16 N/A
9:55 pm 21:55 Clear 79 26 61 16.1 54 54 SSE 5 7 29.77 1008 10 16 N/A
10:15 pm 22:15 Clear 79 26 61 16 54 54 SSE 3 6 29.77 1008 10 16 N/A
10:35 pm 22:35 Clear 78 25.5 61 16 56 56 SSE 6 9 29.80 1009 10 16 N/A
10:55 pm 22:55 Clear 76 24.7 62 16.5 60 60 S 10 17 29.80 1009 10 16 N/A
11:15 pm 23:15 Clear 79 26.1 62 16.5 56 56 S 12 19 29.77 1008 10 16 N/A
11:35 pm 23:35 Clear 80 26.9 62 16.4 53 53 S 13 20 29.77 1008 10 16 N/A
11:55 pm 23:55 Clear 81 27 62 16.5 53 53 SSW 15 24 29.77 1008 10 16 N/A

Powered by AerisWeather